Regional Weather Roundup
Issued by NWS

Home | Current Version | Previous Version | Text Only | Print | Product List | Glossary Off
Versions: 1 2 3 4 5 6 7 8 9 10 11 12 13 14 15 16 17 18 19 20 21 22 23 24 25 26 27

000
ASUS45 KSLC 270610
RWRUT

UTAH REGIONAL WEATHER ROUNDUP
NATIONAL WEATHER SERVICE SALT LAKE CITY UT
1200 AM MDT TUE JUN 27 2017

UTZ001>011-023>025-270700-

NORTHERN UTAH

CITY           SKY/WX    TMP DP  RH WIND       PRES   REMARKS
BRIGHAM CITY   MOCLDY    85  30  13 NW6       29.84F
HILL AFB       MOCLDY    82  37  20 E13       29.87F
LOGAN          MOCLDY    79  41  25 MISG      29.88R
OGDEN          CLOUDY    81  37  20 S7        29.84F
SALT LAKE CITY MOCLDY    83  36  18 SE9       29.83S
TOOELE VALLEY  PTCLDY    68  36  30 SE5       29.84F
WENDOVER         N/A     85  38  18 NW20G35   29.85S
HEBER CITY     PTCLDY    59  43  55 CALM      30.00S
WEST JORDAN    PTCLDY    80  48  32 S16       29.88S

$$

UTZ011>015-024>027-270700-

CENTRAL/NORTHEAST UTAH

CITY           SKY/WX    TMP DP  RH WIND       PRES   REMARKS
PROVO AIRPORT  CLEAR     73  44  35 MISG      29.91S
MOAB/CANYONLAN MOCLDY    83  24  11 CALM      29.89F
DELTA          CLEAR     75  10   8 S14       29.94S
PRICE          PTCLDY    69  28  21 N7        30.02F
VERNAL         CLOUDY    69  42  37 NW7       29.99F

$$

UTZ013>016-019>022-027-270700-

SOUTHERN UTAH

CITY           SKY/WX    TMP DP  RH WIND       PRES   REMARKS
BRYCE CANYON   CLEAR     46  21  37 W7        30.27S
CEDAR CITY     CLEAR     68  12  11 SW8       30.06F
MILFORD        CLEAR     72  12  10 S13       29.99S
ST GEORGE      PTCLDY    85  14   7 CALM      29.85S
HANKSVILLE     CLEAR     82  25  12 W9        29.94S
BLANDING       PTCLDY    68  29  22 NE7       30.14F

$$

REGIONAL REPORTS     COLORADO/ARIZONA

CITY           SKY/WX    TMP DP  RH WIND       PRES   REMARKS
CRAIG, CO      CLOUDY    64  35  34 VRB3      30.10S
GRAND JUNCTION CLOUDY    76  28  17 SE6       29.96S
RIFLE, CO      CLEAR     68  32  26 SE13      30.06S
MONTROSE, CO   CLOUDY    72  33  24 E10       30.09R
CORTEZ, CO     CLEAR     64  39  39 VRB5      30.12S
COLORADO CITY    N/A     63  25  23 NE5       30.07S
PAGE, AZ       CLEAR     89  20   8 W7        29.97S
GRAND CANYON   CLEAR     54  22  28 CALM      30.23S
KINGMAN, AZ    CLEAR     82  21  10 S12       29.96S
FLAGSTAFF, AZ  CLEAR     65  23  20 CALM      30.27S

$$

REGIONAL REPORTS    NEVADA/IDAHO/WYOMING

CITY           SKY/WX    TMP DP  RH WIND       PRES   REMARKS
LAS VEGAS, NV  CLEAR     95   9   4 SW14G24   29.78F
ELY, NY        CLEAR     70  32  24 W10       30.08R
ELKO, NV       PTCLDY    66  41  40 SW6       30.01R
POCATELLO, ID  CLOUDY    72  44  36 S8        29.89F
BURLEY, ID     LGT RAIN  72  49  44 W16G28    29.96R
FORT BRIDGER,  CLOUDY    74  32  21 W13G39    30.17S
EVANSTON, WY   CLOUDY    68  37  32 SE9       30.12F
ROCK SPRINGS,  CLOUDY    67  29  24 SE8       30.09F
KEMMERER, WY     N/A     68  32  26 W3        30.17R

$$




USA.gov is the U.S. government's official web portal to all federal, state and local government web resources and services.